Theta_e
348 346 345 344 342 342 340 340 339 339 339 339 340 341 341 342 342 347 346 345 344 343 348 349 349 344 343 347 341 341 340 339 338 338 337 337 337 335 333 332 332 334 336
346 344 344 342 342 340 339 338 337 337 337 337 336 337 338 338 340 346 343 339 339 344 344 344 345 347 348 348 346 344 342 341 341 340 339 337 336 337 335 332 332 332 332
342 340 339 340 339 338 336 335 335 334 333 333 333 334 334 330 344 342 339 336 335 336 341 342 342 343 345 345 345 344 344 343 342 341 341 340 339 337 336 335 332 332 331
337 334 335 336 334 330 328 328 326 325 326 324 327 328 320 337 341 337 331 330 329 328 332 333 337 340 341 339 338 340 339 339 339 340 341 341 340 339 339 338 335 332 332
332 330 331 331 327 325 325 324 324 321 320 318 318 317 319 339 336 331 327 323 320 319 319 319 324 333 332 329 327 328 329 330 336 337 337 338 338 338 338 339 339 337 334
327 325 325 325 322 322 322 322 319 317 317 314 312 322 337 336 332 328 327 318 316 314 315 317 319 324 322 321 320 321 322 322 323 327 331 332 334 335 337 338 339 339 339
322 319 319 318 317 315 313 312 318 319 314 308 319 322 333 332 326 322 321 314 312 312 312 315 316 319 319 316 314 313 315 317 317 316 316 319 322 326 328 330 332 335 337
317 316 316 315 315 312 310 312 315 317 312 310 314 319 330 323 315 315 311 313 312 311 312 313 313 317 317 315 313 312 312 313 314 313 313 313 314 315 316 318 321 326 330
314 314 313 311 311 311 308 310 310 311 314 312 311 316 318 324 320 313 311 312 312 310 312 312 312 312 312 312 309 310 309 310 311 310 310 310 310 311 313 314 315 315 318
310 311 310 309 309 308 309 309 310 310 310 310 312 312 310 312 312 314 312 312 311 310 311 312 310 310 310 308 310 309 308 308 309 308 308 309 308 310 311 311 312 314 315
311 311 311 310 309 308 308 309 309 309 309 308 308 308 311 308 309 309 307 307 307 310 310 311 309 310 307 307 308 307 308 308 306 307 306 307 307 308 309 310 310 311 312
310 311 310 309 308 308 308 307 307 308 308 308 307 306 306 307 306 306 303 305 305 306 310 308 308 306 305 304 304 305 307 305 304 306 306 304 306 307 308 308 309 309 309
310 309 309 308 308 307 306 307 306 304 306 307 306 305 305 305 306 306 305 305 304 307 307 305 305 305 304 304 304 306 305 305 304 303 302 303 304 305 307 307 307 307 307
309 309 308 306 307 306 306 305 305 306 304 305 305 304 305 305 304 304 305 304 301 303 304 306 306 304 303 302 301 303 303 303 303 302 302 304 304 304 303 304 305 305 304
308 307 306 305 305 305 304 305 305 304 306 304 304 304 304 303 304 303 303 304 304 301 300 304 303 302 301 300 300 302 301 300 302 302 301 302 304 304 302 302 302 302 304
306 306 305 305 305 305 305 304 304 304 304 304 304 302 302 303 303 303 302 302 302 302 300 302 301 300 300 299 300 300 300 301 301 302 302 302 301 300 301 301 302 303 303
305 305 304 305 305 304 303 303 303 303 303 303 302 302 302 302 302 301 301 301 301 300 301 300 299 299 298 299 299 299 299 301 300 299 299 301 300 299 299 297 298 299 301
304 304 303 304 304 304 303 302 302 302 302 302 302 302 302 302 302 301 299 299 298 300 299 298 299 297 297 298 298 298 299 298 300 299 299 299 296 296 296 299 301 302 301
303 302 302 302 303 303 303 303 303 303 303 303 302 302 302 301 301 301 299 298 298 299 297 298 296 296 296 297 298 298 298 299 298 298 297 296 296 297 297 297 297 297 296
301 301 301 301 301 302 302 302 303 304 303 304 303 303 303 302 302 301 301 299 298 298 298 297 296 296 297 297 297 297 298 298 297 296 295 295 295 295 296 296 296 297 298
301 301 301 301 301 301 302 302 303 303 302 303 303 303 304 305 303 303 303 301 299 298 297 296 297 296 296 297 297 298 297 296 295 294 294 294 294 294 295 295 295 296 296
302 302 303 303 303 302 302 302 302 301 299 299 300 301 303 304 304 304 304 302 301 299 298 297 297 297 297 296 296 296 295 294 293 294 295 294 294 295 295 295 295 295 295
301 301 301 302 302 302 302 303 301 300 302 301 300 301 302 303 303 305 304 304 302 301 300 299 298 298 296 295 296 295 293 293 293 294 295 294 294 295 294 294 294 294 294
303 302 302 302 303 303 304 305 305 304 303 303 303 303 303 304 304 305 305 305 302 300 298 296 295 295 294 294 294 294 294 294 294 295 294 294 294 294 294 294 294 294 294
304 305 305 305 306 305 305 306 306 306 305 304 303 304 305 305 305 305 305 301 297 297 297 295 294 294 294 294 294 295 295 295 295 294 294 294 294 295 294 294 294 294 294
306 306 306 306 306 306 306 306 306 307 306 304 303 306 306 304 303 302 298 297 296 297 295 295 295 295 295 295 296 296 296 296 294 294 294 294 295 294 294 293 294 294 294
Wind_Speed
3 8 7 6 8 5 2 1 4 7 7 4 8 11 8 9 11 9 11 5 4 6 14 13 8 1 7 9 10 8 7 6 5 5 5 6 6 6 6 7 8 8 9
6 6 5 4 3 2 2 2 4 4 4 5 7 6 7 6 6 11 15 15 14 10 7 11 11 11 5 4 6 8 8 6 5 5 6 6 6 6 7 7 9 9 9
5 6 2 3 2 1 3 5 6 5 5 7 7 3 5 4 9 11 11 12 12 11 11 10 9 9 12 10 9 9 8 8 7 6 6 7 6 6 7 8 9 10 10
7 5 4 3 1 2 2 4 4 6 6 7 9 4 4 8 12 11 14 12 9 11 9 11 10 13 17 17 17 10 7 5 5 4 5 4 4 5 7 8 9 9 11
9 5 2 2 4 4 4 5 3 5 8 8 6 4 2 12 12 10 14 12 13 14 14 15 12 15 16 20 20 18 12 8 4 5 4 4 3 3 4 5 7 10 11
7 6 3 4 4 5 4 4 2 5 4 11 10 2 13 15 17 15 12 13 14 12 12 11 12 14 17 19 20 18 18 15 12 6 1 2 4 4 6 6 7 8 12
7 10 6 3 1 0 2 2 5 5 6 10 4 3 13 15 20 17 12 16 15 13 12 12 11 7 12 12 16 18 18 17 15 15 14 10 8 6 6 8 9 11 11
6 6 6 5 4 3 5 6 7 7 9 13 5 2 2 9 14 13 13 14 12 11 10 10 12 13 9 14 15 15 18 17 15 16 16 15 15 15 13 11 10 11 13
6 6 6 9 10 5 8 8 10 11 9 12 17 5 0 2 6 8 11 14 11 12 12 10 11 11 12 8 12 13 16 17 13 15 15 15 16 15 15 14 13 12 12
8 7 8 8 6 7 8 10 11 14 14 14 8 14 18 9 3 1 11 12 10 14 11 11 13 12 9 10 11 13 16 16 13 13 15 16 17 15 14 14 15 15 15
11 11 10 11 11 12 11 8 11 16 17 18 18 9 11 15 15 6 1 7 8 8 12 14 14 15 10 10 12 15 15 16 15 14 19 20 18 15 14 14 14 15 16
13 11 10 12 11 10 10 11 11 12 15 18 20 20 21 10 13 10 6 2 4 7 14 17 14 10 10 10 13 15 14 16 16 16 20 23 16 16 15 15 15 17 17
15 12 10 10 11 11 12 12 14 15 13 17 18 18 18 18 15 12 12 6 4 3 10 17 12 13 16 18 18 14 18 12 16 20 19 14 15 15 15 17 18 19 19
16 11 11 11 10 10 10 11 13 14 15 14 19 17 16 15 15 14 13 9 3 4 5 10 9 13 18 17 20 17 18 19 18 21 20 21 16 14 18 18 19 21 25
17 14 11 10 10 10 8 8 12 13 13 12 14 14 12 15 17 14 15 14 5 1 2 2 10 19 22 23 20 18 19 21 20 18 20 20 18 20 21 21 22 23 23
16 13 11 10 8 7 7 11 10 10 14 13 13 12 12 10 14 13 15 14 14 9 1 8 18 21 22 22 20 21 22 21 21 16 17 17 20 27 23 24 23 24 27
15 12 10 9 8 8 10 11 10 9 11 10 11 11 11 11 14 10 9 12 13 15 10 16 21 23 26 26 26 24 24 16 21 27 23 22 23 28 31 35 35 32 28
13 13 11 10 10 8 8 10 10 8 8 8 8 9 9 8 8 10 13 11 13 12 17 22 23 28 27 29 29 30 25 28 22 20 24 25 36 38 34 29 31 27 31
14 14 13 13 11 8 7 5 7 7 7 3 3 4 4 4 4 7 10 9 9 10 15 17 26 29 31 31 33 31 34 24 24 23 27 30 28 29 32 33 34 37 38
8 8 9 8 9 8 5 7 5 1 3 4 5 5 7 6 7 8 13 11 9 11 14 15 18 23 26 29 27 30 29 23 26 29 32 28 30 29 30 31 32 32 32
9 9 6 5 4 3 5 7 6 3 5 6 8 9 10 12 9 14 16 15 13 14 15 18 18 19 20 23 24 25 27 27 27 32 36 32 41 37 34 33 33 34 35
9 5 7 9 6 8 7 4 8 13 10 10 11 13 13 13 15 17 17 15 16 17 18 20 21 22 23 25 26 27 25 26 23 24 30 42 32 37 35 35 36 39 42
10 12 12 10 9 10 8 12 13 13 13 12 13 14 14 14 17 17 19 20 18 18 18 19 24 27 29 30 31 28 26 30 28 30 31 41 31 37 35 39 40 43 44
12 11 12 12 14 15 17 17 18 20 19 18 16 16 19 21 22 24 25 24 16 13 15 22 27 28 30 32 34 36 31 32 32 31 29 33 37 37 41 40 44 46 45
15 16 15 15 17 17 17 20 20 23 24 25 21 19 22 23 23 24 21 15 12 18 23 24 20 25 31 35 36 37 29 25 25 28 29 32 35 40 42 51 44 40 44
17 17 17 16 18 20 18 20 22 26 28 28 22 19 19 20 19 12 9 12 19 25 26 23 27 31 33 35 31 33 37 24 25 26 32 29 35 37 28 41 38 42 43
Wind_Direction
160 107 122 110 129 157 88 93 328 351 340 305 344 359 5 1 13 113 113 90 76 76 68 68 56 287 231 227 224 215 223 233 232 232 242 249 240 239 241 232 245 243 251
165 97 89 137 147 132 65 350 338 338 331 303 314 15 38 34 340 104 91 74 67 65 53 62 70 66 58 200 193 206 208 217 228 234 239 254 265 258 256 255 246 248 250
151 99 111 170 130 266 270 282 278 282 292 278 297 338 71 51 118 98 83 74 65 66 67 62 59 77 77 89 121 129 161 170 190 197 208 219 238 254 266 261 263 261 256
146 112 156 169 152 167 320 289 312 324 309 305 286 288 95 126 116 103 92 78 60 57 58 64 73 83 99 104 99 117 129 155 163 173 190 209 227 238 237 250 265 269 267
148 123 171 161 168 209 241 278 294 351 347 320 299 285 283 121 114 110 81 66 66 56 62 63 78 90 92 77 72 73 80 90 176 205 220 234 238 250 251 260 258 256 264
148 126 162 177 193 238 266 286 233 88 21 332 300 176 139 126 123 114 99 93 89 69 73 68 74 83 78 71 62 57 52 46 41 27 307 239 227 217 234 234 249 256 255
128 121 136 146 120 88 67 55 155 121 48 358 7 161 111 127 125 120 118 109 94 76 73 85 74 78 75 65 56 48 46 43 45 41 30 5 347 315 298 284 271 264 266
133 154 149 116 120 90 102 88 97 102 73 43 55 353 110 88 101 110 106 123 107 93 81 78 85 70 74 65 53 42 39 34 37 31 27 24 18 12 359 337 326 291 272
145 145 129 130 111 88 89 83 81 77 85 68 58 107 138 166 112 103 109 120 117 107 105 94 84 82 80 54 29 36 25 25 25 20 20 18 6 1 357 352 347 340 331
106 101 109 111 106 106 101 92 86 84 97 75 85 76 71 68 116 73 75 105 129 117 116 111 96 90 82 48 56 29 9 11 7 5 4 2 358 356 354 354 350 345 340
104 104 101 98 87 89 85 102 96 84 83 75 62 70 96 59 63 94 69 8 83 94 108 113 106 110 90 50 31 21 5 5 360 350 348 348 345 346 346 346 346 344 339
116 111 111 103 104 94 88 79 87 97 90 84 74 70 68 75 58 62 80 32 22 34 111 101 106 81 47 21 357 352 356 344 350 340 337 331 334 334 335 333 333 332 331
118 110 109 113 102 100 92 83 79 80 89 83 71 75 72 67 64 66 64 49 36 50 89 80 66 48 26 13 6 357 340 344 342 339 342 335 326 322 322 322 320 319 320
129 124 112 104 104 100 101 96 92 81 71 88 72 83 78 68 60 57 60 62 16 1 19 41 80 17 2 357 340 349 342 337 334 337 342 337 318 312 317 318 313 314 315
122 118 116 116 112 99 91 104 99 89 88 78 78 77 75 64 51 54 49 46 54 41 299 337 5 341 342 341 347 343 340 334 326 330 334 333 329 326 325 320 312 308 307
122 117 118 106 106 85 86 93 96 92 86 79 72 69 72 75 60 51 42 33 33 29 323 333 334 332 337 336 347 341 339 337 330 337 332 326 318 322 320 318 310 305 302
111 114 115 110 100 91 94 101 100 93 88 84 78 67 64 50 45 44 38 36 21 8 337 336 326 336 336 338 337 338 336 340 330 330 335 332 320 313 310 308 304 304 303
126 127 125 123 114 109 106 85 105 91 93 83 73 66 59 44 39 17 13 15 2 2 351 333 335 335 334 335 334 332 330 324 326 325 324 308 310 309 314 313 307 297 293
118 128 134 125 119 112 113 93 100 96 77 59 31 16 5 13 341 332 355 348 353 332 339 333 326 334 332 334 326 323 320 322 316 317 313 314 308 305 299 298 297 295 297
129 137 132 139 151 152 140 138 119 90 44 2 347 315 326 294 283 285 316 309 307 299 313 305 309 312 314 316 314 312 311 314 315 317 314 311 308 304 301 300 298 296 294
154 139 143 153 165 217 251 228 176 250 276 286 293 290 290 304 271 294 296 290 273 273 289 288 296 299 301 307 305 306 308 309 310 315 314 315 312 306 302 300 298 297 292
174 215 219 213 230 242 227 222 264 267 263 257 275 284 276 277 283 287 269 276 264 260 276 275 290 295 294 304 302 303 305 311 309 316 310 304 306 299 300 299 298 296 292
216 228 229 224 243 251 236 240 256 253 267 272 281 294 293 289 289 287 281 282 271 272 277 279 302 300 298 304 302 299 302 298 293 299 304 295 304 296 300 298 295 294 289
218 227 237 246 252 255 259 261 262 259 261 272 283 288 286 287 288 278 277 278 255 257 276 298 302 300 303 305 303 303 301 298 292 292 297 290 304 298 303 298 298 292 287
232 237 245 256 258 263 262 260 260 262 261 262 267 278 283 284 293 285 262 260 276 293 306 309 299 302 308 309 310 306 293 285 281 287 300 294 300 302 302 301 297 291 288
242 244 247 254 260 259 264 265 266 269 261 255 261 269 273 294 294 270 276 297 297 304 314 308 304 306 307 309 311 303 287 263 272 293 306 300 301 306 306 299 296 292 289